Doha, Qatar

10:14 PM +03 on June 23, 2017 (GMT +0300)
Doha International

Weather History for OTBD - July, 2012

Change the Weather History Date:

Sunday, July 29, 2012

  Actual Average Record
Temperature  
Mean Temperature 100 °F -  
Max Temperature 108 °F 105 °F 113 °F (2007)
Min Temperature 91 °F 84 °F 84 °F (2002)
Cooling Degree Days 34    
Growing Degree Days 50 (Base 50)    
Moisture  
Dew Point 79 °F    
Average Humidity 56    
Maximum Humidity 84    
Minimum Humidity 24    
Precipitation  
Precipitation 0.00 in 0.00 in - ()
Sea Level Pressure  
Sea Level Pressure 29.46 in    
Wind  
Wind Speed 5 mph ()    
Max Wind Speed 14 mph    
Max Gust Speed -    
Visibility 6.2 miles    
Events      
Averages and records for this station are not official NWS values.
T = Trace of Precipitation, MM = Missing Value Source: Averaged Metar Reports

Daily Weather History Graph

Daily Weather History Graph

Search for Another Location

Airport or City:

Trip Planner

Search our weather history database for the weather conditions in past years. The results will help you decide how hot, cold, wet, or windy it might be!

Date:

Astronomy

Jul. 29, 2012 Rise Set
Actual Time 4:59 AM +03 6:20 PM +03
Civil Twilight 4:34 AM +03 6:45 PM +03
Nautical Twilight 4:05 AM +03 7:14 PM +03
Astronomical Twilight 3:34 AM +03 7:45 PM +03
Moon 2:57 PM +03 (7/29) 12:56 AM +03 (7/29)
Length of Visible Light 14h 10m
Length of Day
13h 20m
Waxing Gibbous, 82% of the Moon is Illuminated
Jul 29
Waxing Gibbous
Aug 2
Full
Aug 9
Last Quarter
Aug 17
New
Aug 24
First Quarter

Hourly Weather History & Observations

Time (+03) Temp. Heat Index Dew Point Humidity Pressure Visibility Wind Dir Wind Speed Gust Speed Precip Events Conditions
12:00 AM 95.0 °F 123.7 °F 84.2 °F 71% 29.44 in - NNE 3.5 mph - N/A   Clear
12:30 AM 95.0 °F 123.7 °F 84.2 °F 71% 29.44 in - North 4.6 mph - N/A   Clear
1:00 AM 95.0 °F 123.7 °F 84.2 °F 71% 29.44 in - NNE 4.6 mph - N/A   Clear
1:30 AM 93.2 °F 120.9 °F 84.2 °F 75% 29.44 in - NNE 5.8 mph - N/A   Clear
2:00 AM 93.2 °F 124.9 °F 86.0 °F 79% 29.44 in - ENE 3.5 mph - N/A   Clear
2:30 AM 93.2 °F 124.9 °F 86.0 °F 79% 29.44 in - NE 3.5 mph - N/A   Clear
3:00 AM 93 °F - 85 °F 73% 29.46 in 6 mi NE 3.5 mph - -   Scattered Clouds
3:00 AM 93.2 °F 124.9 °F 86.0 °F 79% 29.44 in - NE 3.5 mph - N/A   Clear
3:30 AM 93.2 °F 124.9 °F 86.0 °F 79% 29.44 in - North 3.5 mph - N/A   Clear
4:00 AM 91.4 °F 122.4 °F 86.0 °F 84% 29.44 in - Calm Calm - N/A   Clear
4:30 AM 91.4 °F 117.8 °F 84.2 °F 79% 29.44 in - Variable 1.2 mph - N/A   Clear
5:00 AM 91.4 °F 117.8 °F 84.2 °F 79% 29.44 in 5.6 mi Variable 2.3 mph - N/A   Unknown
5:30 AM 91.4 °F 117.8 °F 84.2 °F 79% 29.47 in 5.0 mi ESE 3.5 mph - N/A   Unknown
6:00 AM 93.2 °F 124.9 °F 86.0 °F 79% 29.47 in 5.0 mi ESE 4.6 mph - N/A   Unknown
6:30 AM 95.0 °F 123.7 °F 84.2 °F 71% 29.47 in 5.6 mi ESE 4.6 mph - N/A   Unknown
7:30 AM 96.8 °F 121.7 °F 82.4 °F 63% 29.50 in - SE 6.9 mph - N/A   Clear
8:00 AM 98.6 °F 117.2 °F 78.8 °F 53% 29.50 in - SE 4.6 mph - N/A   Clear
8:30 AM 102.2 °F 116.3 °F 75.2 °F 42% 29.50 in - SSE 6.9 mph - N/A   Clear
9:00 AM 104 °F - 70 °F 24% 29.51 in 7 mi SSE 6.9 mph - -   Scattered Clouds
9:00 AM 104.0 °F 112.2 °F 69.8 °F 33% 29.50 in - SSE 6.9 mph - N/A   Clear
9:30 AM 105.8 °F 113.2 °F 68.0 °F 30% 29.50 in - SSE 6.9 mph - N/A   Clear
10:00 AM 107.6 °F 117.0 °F 69.8 °F 30% 29.50 in - SSW 3.5 mph - N/A   Clear
10:30 AM 107.6 °F 117.0 °F 69.8 °F 30% 29.50 in - SE 8.1 mph - N/A   Clear
11:00 AM 107.6 °F 121.3 °F 73.4 °F 34% 29.50 in - ESE 11.5 mph - N/A   Clear
11:30 AM 107.6 °F 117.0 °F 69.8 °F 30% 29.50 in - ESE 13.8 mph - N/A   Clear
12:00 PM 104.0 °F 121.0 °F 77.0 °F 42% 29.47 in - East 12.7 mph - N/A   Clear
12:30 PM 105.8 °F 121.3 °F 75.2 °F 38% 29.47 in - ESE 12.7 mph - N/A   Clear
1:00 PM 105.8 °F 119.1 °F 73.4 °F 36% 29.47 in - ESE 13.8 mph - N/A   Clear
1:30 PM 104.0 °F 121.0 °F 77.0 °F 42% 29.44 in - ESE 12.7 mph - N/A   Clear
2:00 PM 104.0 °F 121.0 °F 77.0 °F 42% 29.44 in - ESE 12.7 mph - N/A   Clear
2:30 PM 102.2 °F 121.5 °F 78.8 °F 47% 29.44 in - ESE 11.5 mph - N/A   Clear
3:00 PM 104 °F - 76 °F 32% 29.46 in 9 mi ESE 13.8 mph - -   Partly Cloudy
3:00 PM 104.0 °F 121.0 °F 77.0 °F 42% 29.44 in - ESE 13.8 mph - N/A   Clear
3:30 PM 104.0 °F 118.9 °F 75.2 °F 40% 29.44 in - ESE 11.5 mph - N/A   Clear
4:00 PM 104.0 °F 114.0 °F 71.6 °F 35% 29.44 in - ESE 11.5 mph - N/A   Clear
4:30 PM 104.0 °F 116.8 °F 73.4 °F 38% 29.44 in - ESE 10.4 mph - N/A   Clear
5:00 PM 102.2 °F 114.4 °F 73.4 °F 40% 29.44 in - East 8.1 mph - N/A   Clear
5:30 PM 100.4 °F 113.6 °F 75.2 °F 44% 29.44 in - East 8.1 mph - N/A   Clear
6:00 PM 100.4 °F 119.5 °F 78.8 °F 50% 29.44 in - East 5.8 mph - N/A   Clear
6:30 PM 100.4 °F 119.5 °F 78.8 °F 50% 29.44 in - East 5.8 mph - N/A   Clear
7:00 PM 98.6 °F 117.2 °F 78.8 °F 53% 29.47 in - ENE 5.8 mph - N/A   Clear
7:30 PM 98.6 °F 117.2 °F 78.8 °F 53% 29.47 in - ENE 4.6 mph - N/A   Clear
8:00 PM 98.6 °F 120.3 °F 80.6 °F 56% 29.47 in - ENE 3.5 mph - N/A   Clear
8:30 PM 96.8 °F 118.6 °F 80.6 °F 60% 29.47 in - NE 4.6 mph - N/A   Clear
9:00 PM 97 °F - 83 °F 57% 29.50 in 6 mi East 5.8 mph - -   Scattered Clouds
9:00 PM 96.8 °F 121.7 °F 82.4 °F 63% 29.47 in - East 5.8 mph - N/A   Clear
9:30 PM 96.8 °F 135.6 °F 87.8 °F 75% 29.47 in - ENE 3.5 mph - N/A   Clear
10:00 PM 95.0 °F 128.0 °F 86.0 °F 75% 29.47 in - Variable 1.2 mph - N/A   Clear
10:30 PM 95.0 °F 123.7 °F 84.2 °F 71% 29.47 in - Calm Calm - N/A   Clear
11:00 PM 95.0 °F 123.7 °F 84.2 °F 71% 29.47 in - East 3.5 mph - N/A   Clear
11:30 PM 95.0 °F 123.7 °F 84.2 °F 71% 29.47 in - Variable 2.3 mph - N/A   Clear